Weather History for KGAG - November, 2012

Change the Weather History Date:

Thursday, November 8, 2012

  Actual Average Record
Temperature  
Mean Temperature 66 °F -  
Max Temperature 84 °F 63 °F 90 °F (2006)
Min Temperature 48 °F 37 °F 10 °F (1991)
Cooling Degree Days 1    
Growing Degree Days 16 (Base 50)    
Moisture  
Dew Point 36 °F    
Average Humidity 42    
Maximum Humidity 71    
Minimum Humidity 14    
Precipitation  
Precipitation 0.00 in - - ()
Sea Level Pressure  
Sea Level Pressure 29.80 in    
Wind  
Wind Speed 18 mph (South)    
Max Wind Speed 28 mph    
Max Gust Speed 33 mph    
Visibility 10 miles    
Events      
Averages and records for this station are not official NWS values.
T = Trace of Precipitation, MM = Missing Value Source: NWS Daily Summary

Daily Weather History Graph

Daily Weather History Graph

Search for Another Location

Airport or City:

Trip Planner

Search our weather history database for the weather conditions in past years. The results will help you decide how hot, cold, wet, or windy it might be!

Date:

Astronomy

Nov. 08, 2012 Rise Set
Actual Time 7:09 AM CST 5:35 PM CST
Civil Twilight 6:42 AM CST 6:02 PM CST
Nautical Twilight 6:11 AM CST 6:33 PM CST
Astronomical Twilight 5:41 AM CST 7:03 PM CST
Moon 1:16 AM CST (11/8) 2:08 PM CST (11/8)
Length of Visible Light 11h 20m
Length of Day
10h 26m
Waning Crescent, 32% of the Moon is Illuminated
Nov 8
Waning Crescent
Nov 13
New
Nov 20
First Quarter
Nov 28
Full
Dec 6
Last Quarter

Hourly Weather History & Observations

Time (CST) Temp. Dew Point Humidity Pressure Visibility Wind Dir Wind Speed Gust Speed Precip Events Conditions
12:53 AM 54.0 °F 33.1 °F 45% 29.88 in 10.0 mi SSE 19.6 mph 27.6 mph N/A   Clear
1:53 AM 54.0 °F 33.1 °F 45% 29.86 in 10.0 mi South 23.0 mph 29.9 mph N/A   Clear
2:53 AM 54.0 °F 34.0 °F 47% 29.84 in 10.0 mi South 25.3 mph 31.1 mph N/A   Clear
3:53 AM 52.0 °F 35.1 °F 53% 29.82 in 10.0 mi South 27.6 mph 33.4 mph N/A   Clear
4:53 AM 52.0 °F 36.0 °F 54% 29.80 in 10.0 mi South 23.0 mph 33.4 mph N/A   Clear
5:53 AM 50.0 °F 36.0 °F 59% 29.83 in 10.0 mi South 19.6 mph 27.6 mph N/A   Clear
6:53 AM 48.9 °F 37.0 °F 64% 29.83 in 10.0 mi South 21.9 mph 29.9 mph N/A   Clear
7:53 AM 50.0 °F 37.9 °F 63% 29.85 in 10.0 mi South 21.9 mph 27.6 mph N/A   Clear
8:53 AM 55.0 °F 39.9 °F 57% 29.86 in 10.0 mi South 20.7 mph - N/A   Clear
9:53 AM 62.1 °F 41.0 °F 46% 29.84 in 10.0 mi South 19.6 mph 27.6 mph N/A   Clear
10:53 AM 68.0 °F 37.9 °F 33% 29.84 in 10.0 mi SSW 21.9 mph - N/A   Clear
11:53 AM 73.0 °F 35.1 °F 25% 29.81 in 10.0 mi SSW 15.0 mph - N/A   Clear
12:53 PM 78.1 °F 32.0 °F 19% 29.77 in 10.0 mi SSW 16.1 mph 23.0 mph N/A   Clear
1:53 PM 82.9 °F 28.9 °F 14% 29.73 in 10.0 mi SSW 18.4 mph 24.2 mph N/A   Clear
2:53 PM 84.0 °F 32.0 °F 15% 29.72 in 10.0 mi South 18.4 mph - N/A   Clear
3:53 PM 80.1 °F 36.0 °F 20% 29.73 in 10.0 mi South 19.6 mph 27.6 mph N/A   Clear
4:53 PM 77.0 °F 39.0 °F 25% 29.73 in 10.0 mi South 10.4 mph - N/A   Clear
5:53 PM 73.0 °F 37.0 °F 27% 29.75 in 10.0 mi South 13.8 mph - N/A   Clear
6:53 PM 68.0 °F 39.9 °F 36% 29.77 in 10.0 mi South 12.7 mph - N/A   Clear
7:53 PM 64.9 °F 39.9 °F 40% 29.78 in 10.0 mi Calm Calm - N/A   Clear
8:53 PM 61.0 °F 41.0 °F 48% 29.79 in 10.0 mi NW 4.6 mph - N/A   Clear
9:53 PM 57.0 °F 35.1 °F 44% 29.79 in 10.0 mi Calm Calm - N/A   Clear
10:53 PM 48.9 °F 34.0 °F 56% 29.78 in 10.0 mi SSE 3.5 mph - N/A   Clear
11:53 PM 51.1 °F 42.1 °F 71% 29.77 in 10.0 mi Calm Calm - N/A   Clear